Home > Weather > Esfahãn > Past weeks

Flag for Iran Weather for the Past 2 Weeks in Esfahãn, Iran

Now
34 °F

Clear.


Feels Like: 28 °F
Forecast: 23 / 48 °F
Wind: 7 mph from Northwest

Location: Esfahan

Current Time: Feb 8, 2016 at 11:06:26 PM

Latest Report: Feb 8, 2016 at 10:30 PM


Visibility: 10 mi

Pressure: 30.07 "Hg (24.71 "Hg at 1576m altitude)

Humidity: 65%

Dew point: 23 °F

Location of EsfahãnLocation

Historic Weather in Esfahãn — Graph

°F

Esfahãn Temperature Yesterday

Maximum temperature yesterday: 57 °F (at 12:30 PM)
Minimum temperature yesterday: 28 °F (at 2:30 AM)
Average temperature yesterday: 43 °F

High & Low Weather Summary for the Past Weeks

 TemperatureHumidityPressure
High63 °F (Feb 6, 3:00 PM)87% (Jan 25, 6:30 AM)30.48 "Hg (Jan 25, 6:30 AM)
Low12 °F (Jan 28, 7:00 AM)8% (Feb 6, 3:00 PM)29.83 "Hg (Jan 25, 2:30 PM)
Average36 °F37%30.10 "Hg
* Reported Jan 24 9:30 PM — Feb 8 10:00 PM, Esfahãn, Weather by CustomWeather, © 2016

Note: Actual official high and low records may vary slightly from our data, if they occured in-between our weather recording intervals... More about our weather records

Advertising

Esfahãn Weather History for the Previous 24 Hours

 ConditionsComfort  
Time TempWeatherWind HumidityBarometerVisibility
10:00 PM
Mon, Feb 8
36 °FClear.5 mph60%30.07 "Hg10 mi
9:30 PM36 °FClear.9 mph60%30.07 "Hg10 mi
9:00 PM36 °FClear.9 mph60%30.04 "Hg10 mi
8:30 PM37 °FClear.9 mph60%30.04 "Hg10 mi
8:00 PM37 °FClear.9 mph56%30.04 "Hg10 mi
7:30 PM39 °FClear.12 mph61%30.04 "Hg10 mi
7:00 PM41 °FClear.12 mph57%30.01 "Hg10 mi
6:30 PM45 °FPassing clouds.16 mph25%30.01 "HgN/A
6:00 PM48 °FPassing clouds.26 mph21%29.95 "HgN/A
5:30 PM50 °FPassing clouds.36 mph19%29.92 "HgN/A
5:00 PM54 °FPassing clouds.31 mph19%29.92 "HgN/A
4:30 PM55 °FPassing clouds.18 mph19%29.89 "HgN/A
4:00 PM57 °FScattered clouds.24 mph15%29.89 "HgN/A
3:30 PM57 °FScattered clouds.29 mph15%29.86 "HgN/A
3:00 PM57 °FScattered clouds.22 mph17%29.86 "HgN/A
2:30 PM59 °FScattered clouds.31 mph14%29.86 "Hg4 mi
2:00 PM59 °FPassing clouds.36 mph14%29.86 "Hg4 mi
1:30 PM59 °FPassing clouds.29 mph14%29.86 "Hg4 mi
1:00 PM59 °FPassing clouds.33 mph14%29.89 "Hg4 mi
12:30 PM59 °FPassing clouds.26 mph14%29.89 "Hg4 mi
12:00 PM59 °FSandstorm.21 mph17%29.89 "Hg3 mi
11:30 AM55 °FClear.12 mph36%29.92 "Hg4 mi
11:00 AM54 °FHaze.14 mph38%29.95 "Hg3 mi
10:30 AM48 °FHaze.9 mph46%29.95 "Hg3 mi
10:00 AM45 °FHaze.9 mph53%29.98 "Hg2 mi
9:30 AM41 °FHaze.9 mph57%29.98 "Hg2 mi
9:00 AM41 °FHaze.No wind57%29.98 "Hg1 mi
8:30 AM30 °FHaze.7 mph75%29.98 "Hg1 mi
8:00 AM27 °FHaze.5 mph74%29.98 "Hg1 mi
7:30 AM28 °FIce fog.No wind80%29.98 "Hg1 mi
7:00 AM23 °FIce fog.No wind80%29.98 "Hg1 mi
6:30 AM23 °FClear.9 mph80%29.95 "Hg4 mi
6:00 AM27 °FClear.No wind80%29.95 "Hg4 mi
5:30 AM25 °FClear.No wind80%29.95 "Hg4 mi
4:30 AM28 °FClear.No wind74%29.95 "Hg10 mi
4:00 AM27 °FClear.No wind74%29.95 "Hg10 mi
3:00 AM23 °FClear.5 mph74%29.98 "Hg10 mi
2:30 AM28 °FClear.No wind80%29.98 "Hg10 mi
2:00 AM28 °FClear.5 mph74%29.98 "Hg10 mi
1:30 AM32 °FClear.5 mph75%29.98 "Hg10 mi
1:00 AM30 °FClear.5 mph75%29.98 "Hg10 mi
12:30 AM34 °FClear.No wind75%29.98 "Hg10 mi
12:00 AM32 °FClear.No wind69%29.98 "Hg10 mi
11:30 PM
Sun, Feb 7
36 °FClear.No wind75%29.98 "Hg10 mi
11:00 PM36 °FClear.No wind75%29.98 "Hg10 mi
Weather by CustomWeather, © 2016

See weather overviewHow to use our weather pages